Terminal Aerodrome Forecast
Issued by NWS

Home | Current Version | Previous Version | Text Only | Print | Product List | Glossary On
Versions: 1 2 3 4 5 6 7 8 9 10 11 12 13 14 15 16 17 18 19 20 21 22 23 24 25 26 27 28 29 30 31 32 33 34 35 36 37 38 39 40 41 42 43 44 45 46 47 48 49 50
000
FTUS41 KGYX 260617 AAA
TAFMHT
TAF AMD
KMHT 260617Z 2606/2706 02010G17KT 2SM RA VCTS OVC008CB
     FM260645 02010KT 3SM RADZ OVC008
     FM261100 01008KT 6SM -SHRA OVC006
     FM261600 34009KT P6SM OVC020 PROB30 2618/2624 4SM -SHRA OVC012=

USA.gov is the U.S. government's official web portal to all federal, state and local government web resources and services.